Location: Brighton Point
(40.6144°N, 111.7933°W)
Time: 14:08:46
(UTC+00:00)

Hubble Space Telescope - Pass Details

Date: 10 March 2021
Orbit: 535 x 539 km, 28.5° (Epoch: 10 April)

Event Time Altitude Azimuth Distance (km) Brightness Sun altitude
Rises 01:56:53 0° 236° (SW) 2,663 5.4 -6.3°
Reaches altitude 10° 01:59:57 10° 212° (SSW) 1,773 3.9 -6.9°
Maximum altitude 02:02:16 15° 177° (S) 1,496 3.0 -7.3°
Drops below altitude 10° 02:04:36 10° 142° (SE) 1,774 3.0 -7.8°
Enters shadow 02:06:08 - 128° (SE) 2,178 3.4 -8.1°
